星链-5410 (STARLINK-5410 )

导读 | 豆包AI

STARLINK-5410是美国于2022年12月17日发射的星链卫星,属于SpaceX星链互联网星座计划的一部分,旨在为全球提供低延迟、高速率的宽带互联网服务。该卫星在近地轨道运行,通过星际链路实现全球信号覆盖,推动了全球互联网络的普及,也引发了业内对天文观测和太空安全的讨论。

基本信息
目录编号:
54807
目录名称:
STARLINK-5410
国际标识:
2022-175BB
轨道中心:
EARTH
卫星名称:
星链-5410
卫星全名:
星链-5410 (STARLINK-5410 )
卫星状态:
在轨 (已飞行1184 天)
发射日期:
2022-12-17 UTC
国别 :
美国 (US)
星等 :
--
轨道信息
数据来源 国际轨道数据
星历时间: 2026-03-15T09:08:57+0800
11小时前
查看轨道信息
半长轴: 6917.864km
偏心率: 0.0001363
轨道倾角: 53.219°
近地点辐角 90.310°
升交点赤经 4.700°
平近点角 269.805°
近地点: 538.784km
远地点: 540.67km
周期: 95.437分钟
每日圈数: 15.088456
详细信息
固有亮度:
5
最大亮度:
2.5
卫星平台:
Starlink v1.5
覆盖范围:
全球
运营商:
太空探索技术公司
运营商所在国:
美国
制造商(研发单位):
太空探索技术公司
制造商所在国:
美国
使用方式:
暂无
卫星简介
星链(Starlink)计划是由太空探索技术公司(SpaceX)提出的一个巨型低轨卫星互联网星座项目,计划在2019年至2024年间在太空搭建由约1.2万颗卫星组成的“星链”网络,其中1584颗将部署在地球上空550千米处的近地轨道,并从2020年开始工作。该卫星仍在工作。
2D轨道图
3D轨道图
轨道高度分析图
轨道倾角分析图
轨道综合分析图
查看轨道综合分析图